Weather in Sinsk

Russia / Sakha (Yakutia) Republic     61°07′51″N   126°49′57″E
temp.,
°C
wind,
m/s
gust,
m/s
humid.,
%
clouds,
%
prec.,
mm/h
press.,
hPa
HPBL,
m
25 june, sat
sat2500:00+15nnw11760 0.0 100411
03:00+12wnw117411 0.0 100410
06:00+16w125914 0.0 1004118
09:00+23nw35385 0.0 1003708
12:00+27n35305 0.0 10021510
15:00+29nne3427100 0.0 10012275
18:00+28ne233375 0.0 10002267
21:00+21ese11593 0.0 100011
26 june, sun
sun2600:00+16sse11655 0.0 100111
03:00+14s11683 0.0 100111
06:00+18sse126169 0.0 100089
09:00+25s234138 0.0 999482
12:00+30ssw242692 0.0 9972495
15:00+28w2436100 0.0 997829
18:00+30ssw133213 0.0 9952571
21:00+21wsw236070 0.1 99554
27 june, mon
mon2700:00+16sw2496100 1.0 997105
03:00+16sw31098100 1.1 997373
06:00+16wsw2897100 0.3 998347
09:00+18sw379291 0.4 998396
12:00+23wsw356043 1.3 9981337
15:00+26w364260 1.6 9972196
18:00+22wsw396051 0.0 996348
21:00+17sw249510 1.2 997117
28 june, tue
tue2800:00+15ssw229794 0.0 99835
03:00+14wsw229791 0.0 99845
06:00+16wsw27923 0.0 999274
09:00+22wnw246328 0.0 10001027
12:00+26nw344636 0.0 9991917
15:00+26nnw234392 0.0 9992114
18:00+23w1264100 0.0 100077
21:00+21n2365100 0.0 100184
29 june, wed
wed2900:00+18ne236699 0.0 100271
03:00+17e227099 0.0 100258
06:00+18ene127199 0.0 100378
09:00+23se235521 0.0 1003473
12:00+28sse333991 0.0 10021775
15:00+30s233277 0.0 10012658
18:00+30sw2335100 0.0 10002117
21:00+22s22685 0.0 100125